Regional Weather Roundup
Issued by NWS

Home | Current Version | Previous Version | Graphics & Text | Print | Product List | Glossary On
Versions: 1 2 3 4 5 6 7 8 9 10 11 12 13 14 15 16 17 18 19 20 21 22 23 24 25 26 27 28 29 30 31 32 33 34 35 36 37 38 39 40 41 42 43 44 45 46 47 48 49 50
000
ASUS45 KABQ 271401
RWRNM
WEATHER ROUNDUP FOR NEW MEXICO
NATIONAL WEATHER SERVICE ALBUQUERQUE NM
700 AM MST SAT DEC 27 2014

NOTE: "FAIR" MEANS FEW OR NO CLOUDS BELOW 12,000 FEET AGL WITH NO
       SIGNIFICANT WEATHER OR OBSTRUCTIONS TO VISION.

      THIS PRODUCT IS RELEASED AS TWO VERSIONS.  ONE VERSION NEAR
      THE TOP OF THE HOUR CONTAINING PRELIMINARY DATA FROM ALBUQUERQUE
      AND OTHER STATIONS.  A FINAL VERSION WITH ADDITIONAL DATA IS
      ISSUED ABOUT 10 MINUTES AFTER THE HOUR.

NMZ501-503-504-510>518-271500-
NORTHWEST PLATEAU/NORTHCENTRAL MOUNTAINS

CITY           SKY/WX    TMP DP  RH WIND       PRES   REMARKS
FARMINGTON     PTCLDY     3  -2  79 N7        30.19R WCI  -9
LOS ALAMOS     CLEAR     16  10  76 CALM      30.10R
SANTA FE       CLEAR      4   0  83 NW3       30.12R
TAOS           PTCLDY    -6  -8  92 N8        30.11R WCI -21
ANGEL FIRE     LGT SNOW  -4  -8  82 CALM      30.07R

$$
NMZ402-403-502-505>509-271500-
WESTCENTRAL MOUNTAINS/SOUTHWEST MOUNTAINS

CITY           SKY/WX    TMP DP  RH WIND       PRES   REMARKS
GALLUP         PTCLDY    -1  -9  68 CALM      30.17R
GRANTS         CLOUDY     9   6  87 NW6       30.16R WCI  -1
SILVER CITY    CLEAR     18   9  68 N9        30.13R WCI   6

$$
NMZ407-409-411-412-271500-
SOUTHERN DESERTS

CITY           SKY/WX    TMP DP  RH WIND       PRES   REMARKS
LORDSBURG      FAIR      21  18  86 CALM      30.14R
DEMING         CLOUDY    29  17  61 E7        30.15R WCI  22
HOLLOMAN AFB   CLOUDY    28  24  85 SE3       30.17R
ALAMOGORDO     CLOUDY    28  25  86 CALM      30.18R
T OR C         CLEAR     21   9  59 NW7       30.16R WCI  12

$$
NMZ519>523-271500-
CENTRAL VALLEYS/CENTRAL HIGHLANDS

CITY           SKY/WX    TMP DP  RH WIND       PRES   REMARKS
ALBUQUERQUE    CLEAR     20  11  68 N5        30.17R WCI  13
DOUBLE EAGLE   CLEAR     16  10  79 N3        30.16R
MORIARTY ARPT  FAIR      -7 -11  81 N5        30.14R WCI -18
CLINES CORNERS PTCLDY    11   6  81 NW12      30.05R WCI  -3
BELEN          FAIR      16  12  84 N8        30.18R WCI   5
SOCORRO        FAIR      17  12  79 N5        30.18R WCI  10

$$
NMZ524>526-539-540-271500-
SOUTHCENTRAL MOUNTAINS

CITY           SKY/WX    TMP DP  RH WIND       PRES   REMARKS
RUIDOSO        NOT AVBL

$$
NMZ527>531-271500-
NORTHEAST HIGHLANDS/NORTHEAST PLAINS

CITY           SKY/WX    TMP DP  RH WIND       PRES   REMARKS
LAS VEGAS      HAZE      -6 -11  79 NE9       30.09R VSB 1/2 WCI -23
RATON          CLOUDY    15  10  80 W3        30.12R
CLAYTON        CLEAR     14   9  80 NW13      30.17R WCI   0

$$
NMZ532>537-271500-
EASTCENTRAL PLAINS

CITY           SKY/WX    TMP DP  RH WIND       PRES   REMARKS
TUCUMCARI      CLOUDY    19  16  88 CALM      30.24R
CANNON AFB     MOCLDY    20  17  88 NE9       30.21R WCI  10
CLOVIS AIRPORT MOCLDY    19  16  86 N9        30.22R WCI   9

$$
NMZ028-029-538-271500-
SOUTHEAST PLAINS

CITY           SKY/WX    TMP DP  RH WIND       PRES   REMARKS
ROSWELL        MOCLDY    26  20  77 N12       30.22R WCI  16
ARTESIA        CLOUDY    28  23  80 NW10G17   30.23R WCI  19
CARLSBAD       LGT SNOW  33  32  96 N3        30.21R VSB 1
HOBBS          LGT SNOW  32  32 100 N6        30.21R WCI  26


$$


USA.gov is the U.S. government's official web portal to all federal, state and local government web resources and services.